Weather History for Catania, Italy

Change the Weather History Date:

Tuesday, January 22, 2013

  Actual Average Record
Temperature  
Mean Temperature 52 °F -  
Max Temperature 60 °F 61 °F 66 °F (2005)
Min Temperature 44 °F 42 °F 33 °F (2008)
Degree Days  
Heating Degree Days 13    
Growing Degree Days 2 (Base 50)    
Moisture  
Dew Point 40 °F    
Average Humidity 68    
Maximum Humidity 87    
Minimum Humidity 29    
Precipitation  
Precipitation 0.00 in 0.08 in - ()
Sea Level Pressure  
Sea Level Pressure 29.80 in    
Wind  
Wind Speed 10 mph ()    
Max Wind Speed 18 mph    
Max Gust Speed -    
Visibility 6.2 miles    
Events Rain    
Averages and records for this station are not official NWS values.
T = Trace of Precipitation, MM = Missing Value Source: Averaged Metar Reports

Daily Weather History Graph

Daily Weather History Graph

Search for Another Location

Airport:

Trip Planner

Search our weather history database for the weather conditions in past years. The results will help you decide how hot, cold, wet, or windy it might be!

Date:

Astronomy

Jan. 22, 2013 Rise Set
Actual Time 7:10 AM CET 5:12 PM CET
Civil Twilight 6:42 AM CET 5:41 PM CET
Nautical Twilight 6:10 AM CET 6:12 PM CET
Astronomical Twilight 5:39 AM CET 6:43 PM CET
Moon 1:23 PM CET (1/22) 3:15 AM CET (1/22)
Length of Visible Light 10h 59m
Length of Day
10h 02m
Waxing Gibbous, 80% of the Moon is Illuminated
Jan 22
Waxing Gibbous
Jan 27
Full
Feb 3
Last Quarter
Feb 10
New
Feb 17
First Quarter

Hourly Weather History & Observations

Time (CET) Temp. Windchill Dew Point Humidity Pressure Visibility Wind Dir Wind Speed Gust Speed Precip Events Conditions
12:20 AM 50.0 °F - 46.4 °F 87% 29.71 in 6.2 mi West 6.9 mph - N/A Rain Light Rain
12:50 AM 50.0 °F - 46.4 °F 87% 29.71 in 6.2 mi West 9.2 mph - N/A Rain Light Rain
1:20 AM 50.0 °F - 46.4 °F 87% 29.71 in 6.2 mi West 10.4 mph - N/A Rain Light Rain
1:50 AM 50.0 °F - 46.4 °F 87% 29.71 in 6.2 mi West 9.2 mph - N/A Rain Light Rain
2:20 AM 50.0 °F - 46.4 °F 87% 29.68 in 6.2 mi West 8.1 mph - N/A Rain Light Rain
2:50 AM 50.0 °F - 44.6 °F 82% 29.68 in 6.2 mi West 11.5 mph - N/A   Scattered Clouds
3:20 AM 50.0 °F - 44.6 °F 82% 29.68 in 6.2 mi WSW 9.2 mph - N/A   Partly Cloudy
3:50 AM 48.2 °F - 44.6 °F 87% 29.68 in 6.2 mi WSW 11.5 mph - N/A   Partly Cloudy
4:20 AM 48.2 °F - 42.8 °F 82% 29.68 in 6.2 mi WSW 11.5 mph - N/A   Partly Cloudy
4:50 AM 50.0 °F - 44.6 °F 82% 29.68 in 6.2 mi West 9.2 mph - N/A   Partly Cloudy
5:50 AM 48.2 °F - 44.6 °F 87% 29.71 in 6.2 mi West 6.9 mph - N/A   Partly Cloudy
6:20 AM 46.4 °F 41.9 °F 42.8 °F 87% 29.71 in 6.2 mi WSW 9.2 mph - N/A   Partly Cloudy
6:50 AM 46.4 °F 41.1 °F 42.8 °F 87% 29.71 in 6.2 mi West 11.5 mph - N/A   Partly Cloudy
7:20 AM 46.4 °F 40.7 °F 42.8 °F 87% 29.74 in 6.2 mi WSW 12.7 mph - N/A   Partly Cloudy
7:50 AM 46.4 °F 41.1 °F 42.8 °F 87% 29.74 in 6.2 mi WSW 11.5 mph - N/A   Partly Cloudy
8:20 AM 48.2 °F - 42.8 °F 82% 29.74 in 6.2 mi WSW 13.8 mph - N/A   Partly Cloudy
8:50 AM 50.0 °F - 44.6 °F 82% 29.77 in 6.2 mi WSW 16.1 mph - N/A   Partly Cloudy
9:20 AM 53.6 °F - 44.6 °F 72% 29.77 in 6.2 mi WSW 16.1 mph - N/A   Partly Cloudy
9:50 AM 55.4 °F - 44.6 °F 67% 29.80 in 6.2 mi WSW 15.0 mph - N/A   Partly Cloudy
10:20 AM 55.4 °F - 44.6 °F 67% 29.80 in 6.2 mi WSW 17.3 mph - N/A   Partly Cloudy
10:50 AM 57.2 °F - 42.8 °F 59% 29.83 in 6.2 mi WSW 17.3 mph - N/A   Partly Cloudy
11:20 AM 59.0 °F - 41.0 °F 51% 29.83 in 6.2 mi WSW 15.0 mph - N/A   Scattered Clouds
11:50 AM 59.0 °F - 41.0 °F 51% 29.80 in 6.2 mi West 17.3 mph - N/A   Scattered Clouds
12:20 PM 60.8 °F - 37.4 °F 42% 29.80 in 6.2 mi WNW 17.3 mph - N/A   Scattered Clouds
12:50 PM 60.8 °F - 28.4 °F 29% 29.80 in 6.2 mi West 18.4 mph - N/A   Partly Cloudy
1:20 PM 60.8 °F - 30.2 °F 31% 29.77 in 6.2 mi West 17.3 mph - N/A   Partly Cloudy
1:50 PM 60.8 °F - 32.0 °F 34% 29.80 in 6.2 mi West 15.0 mph - N/A   Partly Cloudy
2:20 PM 60.8 °F - 32.0 °F 34% 29.77 in 6.2 mi West 17.3 mph - N/A   Partly Cloudy
2:50 PM 60.8 °F - 32.0 °F 34% 29.80 in 6.2 mi West 17.3 mph - N/A   Partly Cloudy
3:20 PM 59.0 °F - 33.8 °F 39% 29.80 in 6.2 mi West 17.3 mph - N/A   Partly Cloudy
3:50 PM 59.0 °F - 33.8 °F 39% 29.80 in 6.2 mi West 13.8 mph - N/A   Partly Cloudy
4:20 PM 57.2 °F - 35.6 °F 44% 29.83 in 6.2 mi WSW 11.5 mph - N/A   Partly Cloudy
4:50 PM 55.4 °F - 37.4 °F 51% 29.83 in 6.2 mi West 10.4 mph - N/A   Partly Cloudy
5:20 PM 53.6 °F - 39.2 °F 58% 29.83 in 6.2 mi WSW 6.9 mph - N/A   Partly Cloudy
5:50 PM 51.8 °F - 39.2 °F 62% 29.86 in 6.2 mi West 5.8 mph - N/A   Partly Cloudy
6:20 PM 50.0 °F - 39.2 °F 66% 29.89 in 6.2 mi West 8.1 mph - N/A   Partly Cloudy
6:50 PM 48.2 °F - 39.2 °F 71% 29.89 in 6.2 mi WSW 9.2 mph - N/A   Partly Cloudy
7:20 PM 48.2 °F - 39.2 °F 71% 29.89 in 6.2 mi WSW 9.2 mph - N/A   Partly Cloudy
7:50 PM 46.4 °F 42.4 °F 39.2 °F 76% 29.89 in 6.2 mi WSW 8.1 mph - N/A   Partly Cloudy
8:20 PM 48.2 °F - 39.2 °F 71% 29.92 in 6.2 mi West 8.1 mph - N/A   Partly Cloudy
8:50 PM 48.2 °F - 39.2 °F 71% 29.92 in 6.2 mi WSW 11.5 mph - N/A   Partly Cloudy
9:20 PM 46.4 °F 42.4 °F 39.2 °F 76% 29.92 in 6.2 mi West 8.1 mph - N/A   Partly Cloudy
9:50 PM 44.6 °F 41.4 °F 37.4 °F 76% 29.92 in 6.2 mi West 5.8 mph - N/A   Partly Cloudy
10:20 PM 44.6 °F 40.7 °F 37.4 °F 76% 29.92 in 6.2 mi West 6.9 mph - N/A   Partly Cloudy
10:50 PM 44.6 °F 40.2 °F 37.4 °F 76% 29.92 in 6.2 mi WSW 8.1 mph - N/A   Partly Cloudy
11:20 PM 44.6 °F 39.2 °F 37.4 °F 76% 29.92 in 6.2 mi West 10.4 mph - N/A   Partly Cloudy
11:50 PM 44.6 °F 39.2 °F 37.4 °F 76% 29.92 in 6.2 mi West 10.4 mph - N/A   Partly Cloudy